Regional Weather Roundup
Issued by NWS

Home | Current Version | Previous Version | Text Only | Print | Product List | Glossary Off
Versions: 1 2 3 4 5 6 7 8 9 10 11 12 13 14 15 16 17 18 19 20 21 22 23 24 25 26 27 28 29 30 31 32 33 34 35 36 37 38 39 40 41 42 43 44 45 46 47 48 49 50

000
ASUS43 KMPX 052101
RWRMN
WEATHER ROUNDUP FOR MINNESOTA
NATIONAL WEATHER SERVICE TWIN CITIES/CHANHASSEN MN
400 PM CDT THU MAY 05 2016


NOTE: "FAIR" INDICATES FEW OR NO CLOUDS BELOW 12,000 FEET WITH NO
SIGNIFICANT WEATHER AND/OR OBSTRUCTIONS TO VISIBILITY. N/A MEANS
CURRENT SKY AND/OR WEATHER CONDITIONS ARE NOT AVAILABLE.

MNZ060>063-068>070-052200-
   Twin Cities Metro

CITY           SKY/WX    TMP DP  RH WIND       PRES   REMARKS
TWIN CITIES    MOSUNNY   75  33  21 SW10G17   29.95F
ST PAUL        SUNNY     73  37  27 SW10      29.95F
CRYSTAL        SUNNY     77  34  21 SW14      29.94F
BLAINE         MOSUNNY   75  36  23 SW8       29.94F
EDEN PRAIRIE   SUNNY     77  33  20 SW9       29.94F
SOUTH ST PAUL  SUNNY     74  34  22 W13       29.95F
LAKE ELMO      FAIR      72  41  33 SW6       29.97F
$$
MNZ001>005-007-008-013>017-022>024-027-028-052200-
   Northwest Minnesota

CITY           SKY/WX    TMP DP  RH WIND       PRES   REMARKS
BEMIDJI        SUNNY     85  42  21 W12G21    29.80F
HALLOCK        SUNNY     93  21   7 SW15G29   29.69F
ROSEAU         SUNNY     91  32  12 W13G25    29.70F
WARROAD        SUNNY     90  48  24 W21G30    29.70S
THIEF RVR FALL SUNNY     90  36  14 W14G22    29.77F
CROOKSTON      SUNNY     91  36  14 W17G26    29.76F
FOSSTON        SUNNY     90  34  13 W17       29.80S
DETROIT LAKES  SUNNY     86  39  19 W15       29.85F
MOORHEAD       SUNNY     90  34  13 SW13      29.81F
PARK RAPIDS    SUNNY     86  42  21 W18G25    29.85F
MAHNOMEN       FAIR      89  41  19 W25G31    29.80F
$$
MNZ006-009>011-018-025>026-052200-
   North Central Minnesota

CITY           SKY/WX    TMP DP  RH WIND       PRES   REMARKS
BAUDETTE       CLOUDY    89  42  19 NW10      29.71F
FLAG ISLAND    SUNNY     82  39  21 NW16      29.67F
INTL FALLS     SUNNY     85  45  24 W10G22    29.73F
WASKISH        SUNNY     84  46  26 SW14      29.76F
BIG FORK       SUNNY     86  43  22 SW15G21   29.78F
LONGVILLE      SUNNY     82  39  21 SW10G20   29.85F
GRAND RAPIDS   SUNNY     81  41  24 W10G17    29.84F
CRANE LAKE     SUNNY     81  36  19 SW9       29.77S
ORR            SUNNY     84  30  14 SW12      29.75F
COOK           SUNNY     81  39  22 W12G18    29.79F
WALKER         FAIR      83  42  23 SW15G22   29.83F
$$
MNZ012-019>021-037-052200-
   Northeast Minnesota

CITY           SKY/WX    TMP DP  RH WIND       PRES   REMARKS
DULUTH         SUNNY     75  38  26 SW13G23   29.86F
ELY            SUNNY     79  36  21 SW14      29.79F
EVELETH        SUNNY     77  34  20 SW17G23   29.82F
DULUTH HARBOR  SUNNY     75  37  25 SW20      29.85F
TWO HARBORS    SUNNY     73  46  38 SW13      29.83F
SILVER BAY     SUNNY     72  36  26 S15G21    29.82F
GRAND MARAIS     N/A     51  36  56 W7        29.86F
G MARAIS ARPRT CLOUDY    59  30  33 S9G17     29.86F
$$
MNZ029>031-032-039>041-046>048-054>057-064-052200-
   West Central Minnesota

CITY           SKY/WX    TMP DP  RH WIND       PRES   REMARKS
FERGUS FALLS   SUNNY     86  43  22 SW14G28   29.82F
WHEATON        SUNNY     88  43  20 SW12G17   29.88F
MORRIS         SUNNY     84  43  23 SW10G17   29.89F
ALEXANDRIA     SUNNY     83  42  23 SW13      29.91F
ELBOW LAKE     FAIR      84  44  24 SW17      29.88F
WADENA         SUNNY     82  45  26 SW7G20    29.87F
GLENWOOD       SUNNY     82  41  23 SW15      29.92F
APPLETON       SUNNY     84  37  18 W17       29.89F
BENSON         SUNNY     82  37  20 W13G18    29.91F
ORTONVILLE     SUNNY     84  39  20 W10G17    29.90F
MADISON        SUNNY     82  37  20 W12G17    29.91F
WILLMAR        FAIR      82  39  21 SW6G22    29.94F
$$
MNZ033>034-036-042>043-049>051-058-059-052200-
   Central Minnesota

CITY           SKY/WX    TMP DP  RH WIND       PRES   REMARKS
SAUK CENTRE      N/A     80  41  24 SW9G21    29.92F
PAYNESVILLE    SUNNY     81  34  18 SW13      29.94F
AITKIN         SUNNY     82  27  13 SW14      29.86F
PINE RIVER     SUNNY     82  46  28 SW13      29.89F
BRAINERD       SUNNY     81  38  21 SW20      29.88F
STAPLES        SUNNY     81  39  22 SW16      29.88F
LONG PRAIRIE   FAIR      79  41  25 SW8       29.92F
LITTLE FALLS   SUNNY     79  34  19 W10G23    29.91F
LITCHFIELD     SUNNY     81  34  18 SW6       29.95F
BUFFALO        SUNNY     76  35  22 SW12      29.95F
MAPLE LAKE     SUNNY     79  39  23 S9        29.94F
HUTCHINSON     SUNNY     80  38  22 SW7       29.96F
$$
MNZ037-044-045-052-053-052200-
   East Central Minnesota

CITY           SKY/WX    TMP DP  RH WIND       PRES   REMARKS
PRINCETON      SUNNY     79  36  21 S13G20    29.92F
MORA           SUNNY     73  36  25 SW12G17   29.92F
CAMBRIDGE      SUNNY     79  50  36 SW9G20    29.91F
RUSH CITY      SUNNY     74  35  24 SW10G17   29.92F
MOOSE LAKE     SUNNY     79  41  25 W12G18    29.86F
HINCKLEY       CLOUDY    75  41  29 SW13      29.91F
CLOQUET        SUNNY     77  28  16 SW18G25   29.87F
MCGREGOR       SUNNY     79  37  22 SW14G21   29.87F
$$
MNZ071>073-080-081-089-090-097-098-052200-
   Southwest Minnesota

CITY           SKY/WX    TMP DP  RH WIND       PRES   REMARKS
MONTEVIDEO     SUNNY     84  43  23 W8        29.93F
GRANITE FALLS  SUNNY     85  41  21 W7G18     29.94F
CANBY          SUNNY     84  45  25 SW10      29.93F
MARSHALL       SUNNY     81  42  25 SW12      29.95F
REDWOOD FALLS  SUNNY     81  37  20 SW10G20   29.94F
OLIVIA         SUNNY     79  39  24 W12       29.94F
PIPESTONE      SUNNY     75  39  27 SW10G16   29.99F
WINDOM         SUNNY     77  36  22 SW7       29.99F
WORTHINGTON    SUNNY     76  40  27 SW9G18    30.01F
JACKSON        SUNNY     77  30  18 SW10      30.00F
TRACY          SUNNY     79  42  26 SW12G20   29.97F
SLAYTON        SUNNY     76  38  24 SW12G17   30.01S
$$
MNZ065>067-074>077-082>085-091>093-052200-
   South Central Minnesota

CITY           SKY/WX    TMP DP  RH WIND       PRES   REMARKS
MANKATO        SUNNY     75  34  22 SW13      29.98F
ST JAMES       SUNNY     72  36  26 SW10      29.99F
FAIRMONT       SUNNY     73  30  20 SW9       29.99F
GLENCOE        SUNNY     78  40  25 S10       29.95F
FARIBAULT      SUNNY     73  34  23 SW12      29.99F
OWATONNA       SUNNY     75  28  17 SW8G20    29.98F
WASECA         SUNNY     73  34  23 SW10      30.00F
ALBERT LEA     MOSUNNY   73  30  20 SW5       30.00S
$$
MNZ078>079-086>088-094>096-052200-
   Southeast Minnesota

CITY           SKY/WX    TMP DP  RH WIND       PRES   REMARKS
ROCHESTER      SUNNY     71  36  27 W13       30.00F
RED WING       SUNNY     73  32  21 W10       29.96F
STANTON        SUNNY     74  34  23 W9        29.95F
DODGE CENTER   PTSUNNY   70  34  26 SW9       29.98F
WINONA         SUNNY     70  32  24 W5        29.99F
AUSTIN         SUNNY     68  34  28 W5        29.99F
PRESTON        SUNNY     66  35  32 W5        30.01F
$$
ABBREVIATIONS USED IN REMARKS
   TC - TEMPERATURES IN CELSIUS
  WCI - WIND CHILL INDEX
   HX - HEAT INDEX
  VSB - VISIBILITY
$$



USA.gov is the U.S. government's official web portal to all federal, state and local government web resources and services.